[Date Prev][Date Next][Thread Prev][Thread Next] - [Date Index][Thread Index][Author Index]
2 Line ISS Keps 12-11
- Subject: [sarex] 2 Line ISS Keps 12-11
- From: "Dave Larsen PhD" <doc@xxxxxxxxxxx>
- Date: Thu, 11 Dec 2003 01:52:36 -0800
ISS
1 25544U 98067A 03345.18998843 .00016063 00000-0 16219-3 0 8790
2 25544 51.6286 207.0353 0006052 232.6278 267.7440 15.65500997288671
----
Via the sarex mailing list at AMSAT.ORG courtesy of AMSAT-NA.
To unsubscribe, send "unsubscribe sarex" to Majordomo@amsat.org
AMSAT Home